Regional Weather Roundup
Issued by NWS

Home | Current Version | Previous Version | Text Only | Print | Product List | Glossary Off
Versions: 1 2 3 4 5 6 7 8 9 10 11 12 13 14 15 16 17 18 19 20 21 22 23 24 25 26 27 28 29 30 31 32 33 34 35 36 37 38 39 40 41 42 43 44 45 46 47 48 49 50

803
ASUS44 KLIX 011711
RWRLA
LOUISIANA WEATHER ROUNDUP
NATIONAL WEATHER SERVICE NEW ORLEANS LA
1200 PM CDT WED APR 01 2015

NOTE: "FAIR" INDICATES FEW OR NO CLOUDS BELOW 12,000 FEET WITH NO
      SIGNIFICANT WEATHER AND/OR OBSTRUCTIONS TO VISIBILITY.
      SKY/WX - SKY CONDITION AND SIGNIFICANT WEATHER.
      TMP - AIR TEMPERATURE.    DP   - DEWPOINT TEMPERATURE.
      RH  - RELATIVE HUMIDITY.  PRES - PRESSURE.
      HX  - HEAT INDEX.         WCI  - WIND CHILL INDEX.

*  THESE STATIONS ARE NOT NWS OR FAA STATIONS AND ARE NOT UNDER
   NWS QUALITY CONTROL.

LAZ040-048-061>063-065-066-069-011800-
SOUTHEAST LOUISIANA

CITY           SKY/WX    TMP DP  RH WIND       PRES   REMARKS
N.O. AUDUBON     N/A     85  69  60 MISG        N/A
N.O. INTL ARPT PTSUNNY   76  60  57 SW10      30.11S
N.O. LAKEFRONT MOSUNNY   79  63  57 N7        30.12S
SLIDELL        MOSUNNY   79  59  50 VRB7      30.11R
BATON ROUGE    MOSUNNY   79  61  53 S7        30.08F
BOOTHVILLE     MOSUNNY   75  66  73 E7        30.14S
BELLE CHASSE   NOT AVBL
BOGALUSA*        N/A     76  64  67 CALM      30.12F
GALLIANO*      MOSUNNY   79  67  64 MISG      30.12F
NEW ROADS*     CLOUDY    78  62  58 S9        30.08F
GONZALES*      PTSUNNY   78  63  59 SW6       30.09F
HAMMOND*       SUNNY     79  59  50 SW6       30.11F
HOUMA*         PTSUNNY   81  64  57 S15       30.11S
PORT FOURCHON* MOSUNNY   75  68  78 VRB7      30.16S

$$

LAZ041-044-053-054-011800-
SOUTHWEST LOUISIANA

CITY           SKY/WX    TMP DP  RH WIND       PRES   REMARKS
LAKE CHARLES   PTSUNNY   78  66  66 S13       30.05F
LAFAYETTE      MOSUNNY   80  64  58 S6        30.07F
PATTERSON      MOSUNNY   77  61  57 SW12      30.10F
SALT POINT       N/A     76  65  68 SE7       30.08F
NEW IBERIA     MOSUNNY   79  63  57 S9        30.08F
CHENAULT AIRPK NOT AVBL

$$

LAZ027-028-011800-
CENTRAL LOUISIANA

CITY           SKY/WX    TMP DP  RH WIND       PRES   REMARKS
FORT POLK      CLOUDY    74  66  76 S10       30.04F
ALEXANDRIA INT CLOUDY    75  63  66 S8        30.03F
ALEXANDRIA     CLOUDY   N/A N/A N/A MISG      30.06F

$$

LAZ001-002-011800-
NORTHWEST LOUISIANA

CITY           SKY/WX    TMP DP  RH WIND       PRES   REMARKS
SHREVEPORT     CLOUDY    79  64  60 S13       29.99F
BARKSDALE AFB  CLOUDY    77  63  63 S10       29.99F
DTN SHREVEPORT CLOUDY    75  63  66 S9        30.00S

$$

LAZ014-016-011800-
NORTHEAST LOUISIANA

CITY           SKY/WX    TMP DP  RH WIND       PRES   REMARKS
MONROE         PTSUNNY   77  65  66 SW12      30.04F
TALLULAH       PTSUNNY   76  64  66 S9        30.05F

$$




USA.gov is the U.S. government's official web portal to all federal, state and local government web resources and services.